Date String (YYYY-MM-DD hh:mm:ss) UTC,Instrument flags,absolute air pressure of the measurement (hPa),sample flow rate (lpm),inlet stack bypass flow (lpm),air temperature of the measurement (°C),ambient temperature measured by the external sensor (°C),aerosol sample conditioner tube jacket temperature (°C),OPC LED temperature (°C),internal box temperature (°C),relative humidity of the measurement (%),span deviation,mass concentration of particles derived from Lorenz-Mie calculation of OPC scattering (μg/m³),mass concentration of particles derived from Lorenz-Mie calculation of OPC scattering (μg/m³),mass concentration of particles derived from Lorenz-Mie calculation of OPC scattering (μg/m³)
DateTimeUTC,F1_M11,P_M11,Q1_M11,Q2_M11,T1_M11,T2_M11,T3_M11,T4_M11,T5_M11,U1_M11,ZSPAN_M11,X2_M11,X0_M11,X1_M11
2023-11-18 19:00:00,SystemResetWarning,0827.7,5.01,000.00,026.0,025.0,000.0,034.2,027.5,15.0,0002.7,0005.78,0012.43,0005.16
2023-11-18 19:01:00,SystemResetWarning,0827.7,5.00,000.00,026.1,025.1,000.0,034.2,027.6,15.1,0002.8,0005.80,0011.83,0005.20
2023-11-18 19:02:00,SystemResetWarning,0827.7,5.00,000.00,026.1,025.2,000.0,034.2,027.6,15.5,0002.9,0005.86,0011.07,0005.23
2023-11-18 19:03:00,SystemResetWarning,0827.7,5.00,000.00,026.1,025.3,000.0,034.2,027.6,15.5,0002.9,0005.88,0011.07,0005.24
2023-11-18 19:04:00,SystemResetWarning,0827.7,5.00,000.00,026.2,025.3,000.0,034.2,027.7,15.5,0003.6,0005.90,0011.46,0005.28
2023-11-18 19:05:00,SystemResetWarning,0827.6,5.01,000.00,026.2,025.4,000.0,034.3,027.7,15.6,0004.2,0005.96,0011.70,0005.32
2023-11-18 19:06:00,SystemResetWarning,0827.6,5.00,000.00,026.2,025.4,000.0,034.3,027.7,15.5,0004.6,0006.01,0012.42,0005.36
2023-11-18 19:07:00,SystemResetWarning,0827.5,5.00,000.00,026.2,025.4,000.0,034.3,027.7,15.4,0004.9,0006.05,0012.76,0005.39
2023-11-18 19:08:00,SystemResetWarning,0827.5,4.99,000.00,026.3,025.5,000.0,034.3,027.8,15.4,0004.8,0006.05,0013.00,0005.40
2023-11-18 19:09:00,SystemResetWarning,0827.5,5.00,000.00,026.3,025.5,000.0,034.3,027.8,15.4,0005.0,0006.10,0013.51,0005.42
2023-11-18 19:10:00,SystemResetWarning,0827.6,4.99,000.00,026.3,025.6,000.0,034.4,027.8,15.4,0005.2,0006.13,0014.23,0005.43
2023-11-18 19:11:00,SystemResetWarning,0827.9,5.00,000.00,026.4,025.6,000.0,034.4,027.9,15.4,0005.2,0006.15,0014.39,0005.45
2023-11-18 19:12:00,SystemResetWarning,0827.9,5.00,000.00,026.3,024.3,000.0,034.4,027.8,15.3,0004.8,0006.18,0014.43,0005.48
2023-11-18 19:13:00,SystemResetWarning,0827.4,5.02,000.00,026.2,022.9,000.0,034.3,027.5,15.5,0005.0,0006.24,0014.46,0005.51
2023-11-18 19:14:00,SystemResetWarning,0827.4,5.00,000.00,026.1,022.8,000.0,034.3,027.2,15.6,0004.9,0006.28,0014.48,0005.55
2023-11-18 19:15:00,SystemResetWarning,0827.4,4.99,000.00,026.0,023.1,000.0,034.3,026.9,15.8,0005.0,0006.38,0014.32,0005.61
2023-11-18 19:16:00,SystemResetWarning,0827.4,5.00,000.00,025.9,023.5,000.0,034.3,027.0,15.8,0004.9,0006.45,0014.52,0005.67
2023-11-18 19:17:00,SystemResetWarning,0827.4,5.00,000.00,025.9,023.8,000.0,034.2,027.1,15.8,0004.7,0006.49,0014.34,0005.69
2023-11-18 19:18:00,SystemResetWarning,0827.4,5.00,000.00,025.9,024.1,000.0,034.2,027.2,15.6,0004.3,0006.55,0013.97,0005.73
2023-11-18 19:19:00,SystemResetWarning,0827.4,5.00,000.00,025.9,024.3,000.0,034.2,027.3,15.7,0004.3,0006.62,0014.47,0005.78
2023-11-18 19:20:00,SystemResetWarning,0827.3,5.00,000.00,025.9,024.5,000.0,034.2,027.3,15.8,0004.3,0006.68,0014.68,0005.81
2023-11-18 19:21:00,SystemResetWarning,0827.4,4.99,000.00,026.0,024.7,000.0,034.2,027.4,15.7,0004.3,0006.68,0014.37,0005.85
2023-11-18 19:22:00,SystemResetWarning,0827.4,4.99,000.00,026.0,024.8,000.0,034.2,027.4,15.5,0004.2,0006.71,0014.43,0005.88
2023-11-18 19:23:00,SystemResetWarning,0827.4,4.99,000.00,026.0,024.9,000.0,034.2,027.5,15.3,0004.2,0006.74,0014.68,0005.88
2023-11-18 19:24:00,SystemResetWarning,0827.3,5.00,000.00,026.0,025.0,000.0,034.2,027.5,15.4,0004.2,0006.71,0015.04,0005.89
2023-11-18 19:25:00,SystemResetWarning,0827.3,5.00,000.00,026.1,025.1,000.0,034.2,027.6,15.4,0004.1,0006.74,0015.65,0005.91
2023-11-18 19:26:00,SystemResetWarning,0827.3,5.00,000.00,026.1,025.2,000.0,034.2,027.6,15.2,0004.1,0006.73,0015.96,0005.91
2023-11-18 19:27:00,SystemResetWarning,0827.3,4.99,000.00,026.1,025.3,000.0,034.3,027.6,15.3,0004.1,0006.72,0016.15,0005.91
2023-11-18 19:28:00,SystemResetWarning,0827.2,5.00,000.00,026.2,025.3,000.0,034.3,027.7,15.2,0004.1,0006.73,0016.49,0005.93
2023-11-18 19:29:00,SystemResetWarning,0827.2,5.00,000.00,026.2,025.4,000.0,034.3,027.7,15.1,0004.2,0006.69,0016.48,0005.92
2023-11-18 19:30:00,SystemResetWarning,0827.2,5.00,000.00,026.2,025.4,000.0,034.3,027.7,15.2,0003.9,0006.66,0016.03,0005.90
2023-11-18 19:31:00,SystemResetWarning,0827.2,5.00,000.00,026.3,025.5,000.0,034.3,027.8,15.3,0003.8,0006.58,0015.60,0005.87
2023-11-18 19:32:00,SystemResetWarning,0827.2,4.99,000.00,026.3,025.5,000.0,034.4,027.8,15.3,0003.4,0006.58,0015.81,0005.86
2023-11-18 19:33:00,SystemResetWarning,0827.2,4.99,000.00,026.3,025.4,000.0,034.4,027.8,15.5,0003.2,0006.54,0015.68,0005.82
2023-11-18 19:34:00,SystemResetWarning,0827.1,4.99,000.00,026.3,023.9,000.0,034.4,027.7,15.0,0003.0,0006.52,0015.54,0005.81
2023-11-18 19:35:00,SystemResetWarning,0827.1,5.00,000.00,026.2,022.7,000.0,034.3,027.4,14.9,0002.4,0006.50,0015.54,0005.80
2023-11-18 19:36:00,SystemResetWarning,0827.1,5.01,000.00,026.1,022.8,000.0,034.3,027.1,15.2,0002.3,0006.48,0015.56,0005.79
2023-11-18 19:37:00,SystemResetWarning,0827.1,5.00,000.00,025.9,023.1,000.0,034.3,026.9,15.6,0002.6,0006.47,0015.90,0005.77
2023-11-18 19:38:00,SystemResetWarning,0827.1,4.99,000.00,025.9,023.4,000.0,034.2,026.9,15.6,0002.2,0006.45,0015.46,0005.75
2023-11-18 19:39:00,SystemResetWarning,0827.0,5.00,000.00,025.9,023.8,000.0,034.2,027.1,15.7,0002.2,0006.45,0015.08,0005.75
2023-11-18 19:40:00,SystemResetWarning,0827.0,5.00,000.00,025.9,024.1,000.0,034.2,027.2,15.8,0002.5,0006.46,0014.82,0005.75
2023-11-18 19:41:00,SystemResetWarning,0827.0,5.00,000.00,025.9,024.3,000.0,034.2,027.3,15.8,0002.8,0006.45,0014.91,0005.74
2023-11-18 19:42:00,SystemResetWarning,0827.0,4.99,000.00,025.9,024.5,000.0,034.2,027.3,15.7,0003.0,0006.46,0015.03,0005.75
2023-11-18 19:43:00,SystemResetWarning,0826.9,5.00,000.00,025.9,024.7,000.0,034.2,027.4,15.7,0003.5,0006.49,0014.94,0005.75
2023-11-18 19:44:00,SystemResetWarning,0827.0,5.01,000.00,026.0,024.8,000.0,034.2,027.4,15.5,0003.7,0006.54,0015.43,0005.79
2023-11-18 19:45:00,SystemResetWarning,0826.9,5.01,000.00,026.0,024.9,000.0,034.2,027.5,15.7,0003.9,0006.56,0015.54,0005.83
2023-11-18 19:46:00,SystemResetWarning,0826.9,5.00,000.00,026.0,025.0,000.0,034.2,027.5,15.9,0004.3,0006.59,0015.18,0005.87
2023-11-18 19:47:00,SystemResetWarning,0826.9,4.99,000.00,026.1,025.1,000.0,034.2,027.6,15.9,0004.2,0006.62,0014.86,0005.90
2023-11-18 19:48:00,SystemResetWarning,0826.9,5.00,000.00,026.1,025.2,000.0,034.2,027.6,15.9,0003.9,0006.59,0015.19,0005.93
2023-11-18 19:49:00,SystemResetWarning,0826.9,4.99,000.00,026.1,025.3,000.0,034.2,027.7,15.6,0004.1,0006.58,0014.96,0005.96
2023-11-18 19:50:00,SystemResetWarning,0826.9,5.00,000.00,026.2,025.3,000.0,034.3,027.7,15.6,0004.1,0006.57,0015.22,0005.97
2023-11-18 19:51:00,SystemResetWarning,0826.8,5.01,000.00,026.2,025.4,000.0,034.3,027.7,15.6,0003.8,0006.58,0015.11,0005.97
2023-11-18 19:52:00,SystemResetWarning,0826.8,5.00,000.00,026.2,025.4,000.0,034.3,027.8,15.6,0003.7,0006.67,0014.99,0006.02
2023-11-18 19:53:00,SystemResetWarning,0826.8,5.01,000.00,026.3,025.5,000.0,034.3,027.8,15.5,0003.8,0006.78,0014.79,0006.07
2023-11-18 19:54:00,SystemResetWarning,0826.8,5.01,000.00,026.3,025.5,000.0,034.4,027.9,15.2,0003.6,0006.81,0014.29,0006.10
2023-11-18 19:55:00,SystemResetWarning,0826.8,4.99,000.00,026.3,024.7,000.0,034.4,027.8,14.9,0003.4,0006.85,0014.27,0006.12
2023-11-18 19:56:00,SystemResetWarning,0826.6,5.01,000.00,026.2,023.0,000.0,034.3,027.5,14.9,0003.1,0006.91,0014.37,0006.15
2023-11-18 19:57:00,SystemResetWarning,0826.6,5.01,000.00,026.1,022.7,000.0,034.3,027.3,15.2,0002.8,0006.95,0014.83,0006.16
2023-11-18 19:58:00,SystemResetWarning,0826.6,4.99,000.00,026.0,023.0,000.0,034.2,026.9,15.2,0003.2,0006.98,0014.93,0006.15
2023-11-18 19:59:00,SystemResetWarning,0826.6,5.00,000.00,025.9,023.4,000.0,034.2,027.0,15.3,0002.9,0007.04,0014.83,0006.17
